Das Wetter in  D-61279 Heinzenberg / Taunus





Wetter Minimum- & Maximum-Werte im Juli 2013

Standort: Heinzenberg / Taunus - Höhe 297 m         8 24' 1" Ost 50 21' 51" Nord
(   3-stündige Aktualisierung    letzte Aktualisierung um 19:04 am 31.07.2013  )


Messgrösse

Minimum

Maximum

Durchschnitt

Temperatur West /
Luftfeuchte West
Anklicken für Monats-Diagramm

8,7 C

06:11
12.07.2013

32 %

16:29
27.07.2013

35,4 C

18:14
27.07.2013

90 %

05:48
04.07.2013

Temp

20,2 C

Feuchte

66 %

Temperatur Ost /
Luftfeuchte Ost
Anklicken für Monats-Diagramm

8,9 C

06:11
12.07.2013

--

--
--

34,5 C

17:00
27.07.2013

--

--
--

20,2 C

--

Luftdruck Anklicken für Monats-Diagramm

1004,7 hPa

18:49
27.07.2013

1031,0 hPa

07:52
08.07.2013

1019,3 hPa

Taupunkt

5,4 C

06:11
12.07.2013

21,1 C

19:14
26.07.2013

13,2 C

Windchill
( gefühlte Temperatur )

8,4 C

04:25
11.07.2013

35,4 C

18:14
27.07.2013

19,6 C

Windgeschwindigkeit /
Windrichtung
Anklicken für Monats-Diagramm

---

49,6 km/h / W-SW

15:21
30.07.2013

6,5 km/h
SO

Helligkeit /
Sonnenschein
Anklicken für Monats-Diagramm
Anklicken für Monats-Diagramm

Sonnenschein:

240:13 Stunden

Max: 13:55 Std am
20.07.2013

110 klux

14:08
04.07.2013

36 klux

Solarstrahlung Anklicken für Monats-Diagramm

---

752 W/m

14:08
04.07.2013

262 W/m

Regenmenge
    Juli 2013
Anklicken für Monats-Diagramm

Insgesamt 28,9 l/m

in 20:29 Stunden
an 8 Tagen

16,4 l/m

12:32
03.07.2013

Gesamtmenge

28,9 l/m

Regen-Tage
    Juli 2013
Anklicken für Monats-Diagramm

>   0 mm/Tag

>   2 mm/Tag

>   5 mm/Tag

> 10 mm/Tag

> 20 mm/Tag

8 Tage     
3 Tage     
2 Tage     
  1 Tag     
0 Tage     

Eisige Tage Juli 2013 / 2012

Tmin ≤ -10C     

0 Tage

/

0 Tage

Eistage Juli 2013 / 2012

Tmax <     0C     

0 Tage

/

0 Tage

Frosttage Juli 2013 / 2012

Tmin ≤     0C     

0 Tage

/

0 Tage

Kalte Tage Juli 2013 / 2012

Tmax <   10C     

0 Tage

/

0 Tage

Warme Tage Juli 2013 / 2012

Tmax ≥   20C     

30 Tage

/

22 Tage

Sommertage Juli 2013 / 2012

Tmax ≥   25C     

25 Tage

/

8 Tage

Heisse Tage Juli 2013 / 2012

Tmax ≥   30C     

8 Tage

/

4 Tage


Monatsdiagramm Juli 2013

Die Kurven zeigen den Durchschnittswert des jeweiligen Tages an


Wetter-Monatsübersicht Juli 2013
Datum
  Temperatur
   Luftdruck
   Wind
  Regen
   Luftfeuchte
   Helligkeit

Sonnen-
schein


Temp.

Min.
Temp.

Max.
Temp.


Luftdruck

Min.
Luftdruck

Max.
Luftdruck

-Geschw.
Haupt-Richtg.

Max.
Wind

Menge /
Dauer


Feuchte

Min.
Feuchte

Max.
Feuchte


Helligkeit

Max.
Helligkeit

1.
Juli
17,5 C9,9 C
05:59
25,0 C
18:15
1017,8 hPa1014,1 hPa
18:15
1021,9 hPa
00:50
9,3 km/h
W-SW
32,5 km/h
11:10  
---
69 %51 %
17:55
87 %
07:49
36,8 klux98,2 klux
13:50
6:52 Std 
2.
Juli
18,6 C11,2 C
06:26
26,8 C
18:01
1014,7 hPa1011,3 hPa
20:56
1017,7 hPa
07:11
6,7 km/h
W-SW
27,6 km/h
12:21  
---
64 %41 %
18:11
85 %
07:56
39,2 klux93,7 klux
14:16
8:05 Std 
3.
Juli
16,7 C15,4 C
05:11
19,2 C
17:27
1010,8 hPa1008,7 hPa
12:02
1016,2 hPa
23:43
8,3 km/h
W-SW
34,8 km/h
01:52  
16,4 l/m
9:29 Stunden
84 %70 %
00:02
89 %
14:12
14,1 klux78,7 klux
17:22
15 Min 
4.
Juli
18,0 C14,6 C
06:03
23,1 C
16:08
1020,2 hPa1016,2 hPa
00:03
1024,4 hPa
23:34
5,9 km/h
W-NW
28,8 km/h
15:03  
---
78 %57 %
15:58
90 %
05:48
30,9 klux110,0 klux
14:08
3:25 Std 
5.
Juli
19,0 C14,8 C
05:59
23,9 C
18:24
1027,4 hPa1025,4 hPa
00:44
1029,5 hPa
23:50
4,9 km/h
NW
20,7 km/h
16:04  
---
73 %58 %
18:29
88 %
08:09
33 klux99 klux
12:04
5:55 Std 
6.
Juli
19,9 C12,2 C
05:55
28,2 C
18:30
1028,6 hPa1026,1 hPa
18:30
1030,8 hPa
01:05
4,6 km/h
SO
18,3 km/h
15:05  
---
68 %45 %
18:30
88 %
08:15
38,9 klux92,1 klux
14:30
8:30 Std 
7.
Juli
20,7 C12,4 C
05:56
29,2 C
18:16
1028,8 hPa1027,0 hPa
18:16
1030,5 hPa
09:21
6,7 km/h
SO
21,8 km/h
11:21  
---
63 %37 %
13:21
85 %
06:46
42,9 klux80,4 klux
14:16
12:50 Std 
8.
Juli
20,5 C11,3 C
06:12
28,8 C
18:07
1028,3 hPa1025,0 hPa
19:07
1031,0 hPa
07:52
7,9 km/h
NO
25,9 km/h
13:52  
---
61 %40 %
15:47
82 %
06:17
43,5 klux80,2 klux
13:17
13:30 Std 
9.
Juli
20,7 C11,9 C
06:03
29,2 C
17:28
1023,9 hPa1019,8 hPa
18:38
1027,8 hPa
03:08
5,8 km/h
SO
21,8 km/h
17:53  
---
64 %40 %
17:33
84 %
07:38
40,5 klux91,5 klux
13:58
10:15 Std 
10.
Juli
19,8 C13,2 C
05:44
27,6 C
14:14
1018,9 hPa1015,9 hPa
17:34
1021,5 hPa
03:34
7,9 km/h
NW
27,7 km/h
17:44  
---
65 %39 %
13:49
84 %
07:49
41,8 klux89,1 klux
15:19
10:05 Std 
11.
Juli
16,9 C11,4 C
03:35
24,3 C
17:50
1020,3 hPa1018,3 hPa
18:10
1021,5 hPa
23:56
4,9 km/h
NO
23,0 km/h
12:55  
---
61 %42 %
17:55
74 %
03:35
36,8 klux91,0 klux
13:30
7:10 Std 
12.
Juli
16,8 C8,7 C
06:11
25,0 C
17:16
1021,1 hPa1019,2 hPa
17:16
1023,2 hPa
07:06
5,8 km/h
W-NW
20,3 km/h
15:56  
---
64 %43 %
13:41
83 %
08:06
43,3 klux93,5 klux
14:16
9:20 Std 
13.
Juli
17,7 C9,8 C
06:32
25,4 C
16:17
1021,3 hPa1019,2 hPa
18:02
1023,4 hPa
23:57
5,9 km/h
W-NW
21,0 km/h
15:42  
---
65 %42 %
16:17
82 %
08:07
39,8 klux88,2 klux
13:57
7:35 Std 
14.
Juli
18,3 C10,4 C
06:18
25,3 C
16:03
1022,3 hPa1020,2 hPa
16:03
1024,1 hPa
06:18
7,2 km/h
NW
23,8 km/h
19:18  
---
66 %48 %
14:23
82 %
07:28
39,3 klux83,5 klux
14:18
8:20 Std 
15.
Juli
18,7 C10,4 C
06:09
27,0 C
18:49
1022,4 hPa1020,1 hPa
18:59
1024,1 hPa
06:44
4,9 km/h
NW
21,3 km/h
14:34  
---
64 %42 %
18:04
84 %
08:29
40,5 klux89,1 klux
13:04
9:50 Std 
16.
Juli
20,0 C11,1 C
06:24
28,6 C
13:49
1022,3 hPa1019,9 hPa
18:09
1024,0 hPa
06:24
3,3 km/h
SO
13,6 km/h
14:49  
---
61 %39 %
14:04
81 %
07:39
40,0 klux91,9 klux
13:49
9:19 Std 
17.
Juli
21,1 C12,0 C
06:10
30,5 C
17:45
1022,0 hPa1019,6 hPa
17:45
1023,9 hPa
06:10
6,0 km/h
SO
22,1 km/h
13:30  
---
59 %33 %
15:35
83 %
07:15
42,0 klux78,8 klux
13:50
10:10 Std 
18.
Juli
22,8 C15,2 C
04:41
30,3 C
18:21
1022,0 hPa1019,7 hPa
18:21
1023,5 hPa
04:41
7,7 km/h
NO
26,0 km/h
12:31  
---
57 %35 %
18:21
79 %
08:06
42,4 klux85,1 klux
13:11
12:01 Std 
19.
Juli
22,3 C14,0 C
06:47
30,3 C
18:12
1021,3 hPa1018,6 hPa
18:12
1023,6 hPa
06:47
7,5 km/h
NO
23,7 km/h
12:42  
---
57 %37 %
17:12
79 %
07:32
43,5 klux81,0 klux
13:57
13:00 Std 
20.
Juli
21,4 C13,2 C
06:38
29,7 C
18:18
1020,0 hPa1017,7 hPa
18:18
1021,6 hPa
06:38
5,5 km/h
NO
19,8 km/h
18:23  
---
59 %37 %
18:18
80 %
07:33
44,0 klux78,8 klux
13:18
13:55 Std 
21.
Juli
23,0 C13,1 C
06:44
32,5 C
18:09
1019,6 hPa1016,4 hPa
18:59
1021,7 hPa
06:44
7,0 km/h
SO
26,8 km/h
09:34  
---
56 %33 %
18:09
80 %
07:29
43,4 klux78,2 klux
13:49
13:55 Std 
22.
Juli
24,0 C13,8 C
06:40
34,1 C
16:20
1016,3 hPa1013,1 hPa
18:40
1019,5 hPa
06:15
3,4 km/h
W-NW
15,5 km/h
16:10  
---
57 %33 %
16:10
79 %
07:00
42,3 klux89,6 klux
12:55
11:25 Std 
23.
Juli
22,9 C17,5 C
05:31
32,2 C
14:21
1013,3 hPa1011,2 hPa
14:21
1014,9 hPa
05:31
4,3 km/h
W-SW
33,2 km/h
15:36  
---
64 %37 %
14:16
79 %
23:22
28,2 klux98,3 klux
12:46
2:50 Std 
24.
Juli
20,6 C15,8 C
05:42
26,2 C
12:12
1014,2 hPa1012,8 hPa
02:32
1016,8 hPa
23:13
6,0 km/h
W
25,7 km/h
13:27  
---
30 Minuten
75 %60 %
11:47
84 %
06:52
23,4 klux75,3 klux
12:17
2:45 Std 
25.
Juli
20,7 C14,5 C
06:33
28,8 C
17:38
1015,7 hPa1013,6 hPa
17:38
1017,3 hPa
06:33
3,1 km/h
W-SW
37,7 km/h
18:09  
5,9 l/m
1:10 Stunden
76 %56 %
11:43
87 %
08:03
29,2 klux85,5 klux
12:03
3:35 Std 
26.
Juli
22,5 C15,8 C
06:09
30,3 C
19:09
1014,2 hPa1010,9 hPa
20:49
1017,0 hPa
01:34
2,9 km/h
SO
21,5 km/h
16:34  
---
15 Minuten
74 %54 %
15:39
88 %
08:19
26,0 klux91,5 klux
13:29
3:15 Std 
27.
Juli
26,0 C17,7 C
06:19
35,4 C
18:14
1008,8 hPa1004,7 hPa
18:49
1012,7 hPa
04:09
9,5 km/h
W-SW
41,5 km/h
12:49  
---
61 %32 %
16:29
87 %
07:59
40,2 klux99,7 klux
13:09
10:46 Std 
28.
Juli
21,7 C18,0 C
23:50
26,8 C
10:49
1011,2 hPa1005,1 hPa
00:49
1014,9 hPa
23:50
6,8 km/h
W-SW
40,9 km/h
01:24  
1,2 l/m
4:00 Stunden
72 %55 %
10:44
83 %
12:39
17 klux71 klux
10:54
2:05 Std 
29.
Juli
18,7 C16,0 C
23:16
24,3 C
15:00
1015,2 hPa1013,1 hPa
15:00
1018,2 hPa
23:31
3,8 km/h
W-SW
32,6 km/h
15:40  
1,5 l/m
1:35 Stunden
80 %58 %
15:00
87 %
05:50
18,5 klux95,7 klux
10:55
30 Min 
30.
Juli
18,2 C14,8 C
07:01
23,5 C
17:51
1018,7 hPa1017,3 hPa
17:51
1020,3 hPa
08:36
12,3 km/h
W-SW
49,6 km/h
15:21  
2,7 l/m
2:25 Stunden
75 %56 %
13:36
89 %
05:16
32,7 klux98,0 klux
14:51
5:10 Std 
31.
Juli
20,6 C17,3 C
04:17
25,9 C
18:12
1018,0 hPa1016,8 hPa
03:27
1020,1 hPa
23:43
16,7 km/h
W
34,0 km/h
03:42  
1,1 l/m
1:05 Stunden
68 %52 %
18:12
86 %
04:37
27,9 klux96,9 klux
14:32
3:35 Std 



Juli
2013

Temperatur

  

Luftdruck

  

Wind

  

Regen

  

Luftfeuchte

  

Helligkeit

Sonnen-
schein

Min

Max

Min

Max

Max

Max

Min

Max

Max

Max

20,2 C

8,7 C

06:11 Uhr
12.07.2013

35,4 C

18:14 Uhr
27.07.2013

1019,3 hPa

1004,7 hPa

18:49 Uhr
27.07.2013

1031,0 hPa

07:52 Uhr
08.07.2013

6,5 km/h

SO

49,6 km/h

15:21 Uhr
30.07.2013

16,4 l/m

9:29 Stunden
03.07.2013

66 %

32 %

16:29 Uhr
27.07.2013

90 %

05:48 Uhr
04.07.2013

35,6 klux

110,0 klux

14:08 Uhr
04.07.2013

13:55 Std

am
20.07.2013

Gesamt

Gesamt

28,9 l/m

8 Tage
20:29 h

240:13 Std


Wetter-Diagramme Juli 2013     Heinzenberg / Taunus   
TemperaturLuftfeuchte
SolarstrahlungLuftdruck
HelligkeitSonnenschein
RegenmengeRegendauer
Wind-GeschwindigkeitWind-Richtung